Laredo, TX

1:56 AM CDT en Junio 24, 2018 (GMT -0500)
Laredo International

Tiempo Historia de KLRD - Junio, 2018

Change the Weather History Date:

Jueves, Junio 14, 2018

  Actual Average Record
Temperature  
Temperatura media 87 ° F 87 ° F  
Temperatura máxima 100 ° F 98 ° F 112 ° F (1998)
Temperatura mínima 74 ° F 76 ° F 62 ° F (1918)
Degree Days  
Grados día de calefacción 0 0  
Month to date heating degree days 0 0  
Since 1 June heating degree days 0 0  
Since 1 July heating degree days 845 926  
Cooling Degree Days 22 22  
Month to date cooling degree days 365 301  
Year to date cooling degree days 1726 1444  
Since 1 June cooling degree days 365 301  
Growing Degree Days 36 (Base 50)    
Moisture  
Punto de rocío 67 ° F    
Average Humidity 55    
Maximum Humidity 79    
Minimum Humidity 31    
Precipitación  
Precipitación 0.00 pul 0.07 pul 1.50 pul (2013)
Month to date precipitation 0.02 0.98  
Year to date precipitation 2.57 7.85  
Nieve  
Nieve 0.00 pul 0.00 pul - ()
Month to date snowfall 0.0 0.0  
Since 1 June snowfall 0.0 0.0  
Since 1 July snowfall 1.3 0.0  
Grosos de nieve 0.00 pul    
Presión al nivel del mar  
Presión al nivel del mar 29.94 pul    
Viento  
Velocidad del viento 13 mph (SE)    
Velocidad máxima del viento 24 mph    
Max Gust Speed 29 mph    
Visibilidad 10 Millas    
Eventos      
T = Trace of Precipitation, MM = Missing Value Source: NWS Daily Summary

Daily Weather History Graph

Daily Weather History Graph

Search for Another Location

Airport or City:

Astronomía

Jun. 14, 2018 Salida Puesta
Hora real 6:42 AM CDT 8:34 PM CDT
Crepúsculo civil 6:15 AM CDT 9:00 PM CDT
Crepúsculo náutico 5:43 AM CDT 9:32 PM CDT
Crepúsculo astronómico 5:09 AM CDT 10:06 PM CDT
Luna 7:36 AM CDT (6/14) 9:40 PM CDT (6/14)
Horas de luz 14h 45m
Horas de luz
13h 52m
Luna nueva, 1% of the Moon is Illuminated
Jun 14
Luna nueva
Jun 20
Cuarto creciente
Jun 27
Luna llena
Jul 6
Cuarto menguante
Jul 12
Nueva

Hourly Weather History & Observations

Hora (CDT) Temp. Índice de calor Punto de rocío Humedad Presión Visibilidad Wind Dir Velocidad del viento Velocidad de ráfagas Precip Eventos Condiciones
12:56 AM 82.0 ° F 84.9 ° F 68.0 ° F 62% 29.97 pul 10.0 mi SSE 11.5 mph - N/A   Despejado
1:56 AM 80.1 ° F 82.3 ° F 66.9 ° F 64% 29.97 pul 10.0 mi SE 9.2 mph - N/A   Despejado
2:56 AM 79.0 ° F - 66.9 ° F 66% 29.96 pul 10.0 mi ESE 10.4 mph - N/A   Despejado
3:56 AM 78.1 ° F - 66.9 ° F 68% 29.95 pul 10.0 mi ESE 9.2 mph - N/A   Despejado
4:56 AM 75.9 ° F - 66.9 ° F 74% 29.96 pul 10.0 mi SE 8.1 mph - N/A   Despejado
5:56 AM 75.9 ° F - 66.9 ° F 74% 29.96 pul 10.0 mi ESE 8.1 mph - N/A   Despejado
6:56 AM 73.9 ° F - 66.9 ° F 79% 29.99 pul 10.0 mi ENE 4.6 mph - N/A   Despejado
7:56 AM 78.1 ° F - 69.1 ° F 74% 30.00 pul 10.0 mi SE 10.4 mph - N/A   Despejado
8:56 AM 82.0 ° F 85.9 ° F 70.0 ° F 67% 30.00 pul 10.0 mi SE 16.1 mph 19.6 mph N/A   Despejado
9:56 AM 84.9 ° F 89.4 ° F 70.0 ° F 61% 30.00 pul 10.0 mi Sur 18.4 mph - N/A   Nubes dispersas
10:56 AM 89.1 ° F 94.1 ° F 70.0 ° F 53% 30.00 pul 10.0 mi SSE 15.0 mph - N/A   Muy nublado
11:56 AM 89.1 ° F 92.9 ° F 68.0 ° F 50% 29.99 pul 10.0 mi SSE 15.0 mph 21.9 mph N/A   Muy nublado
12:56 PM 90.0 ° F 92.8 ° F 66.9 ° F 46% 29.98 pul 10.0 mi SSE 12.7 mph - N/A   Muy nublado
1:56 PM 96.1 ° F 98.8 ° F 64.9 ° F 36% 29.94 pul 10.0 mi SE 13.8 mph 19.6 mph N/A   Parcialmente nublado
2:56 PM 96.1 ° F 98.3 ° F 64.0 ° F 35% 29.91 pul 10.0 mi SSE 11.5 mph 18.4 mph N/A   Nubes dispersas
3:56 PM 99.0 ° F 101.7 ° F 64.0 ° F 32% 29.87 pul 10.0 mi SE 18.4 mph - N/A   Nubes dispersas
4:56 PM 98.1 ° F 99.1 ° F 62.1 ° F 30% 29.85 pul 10.0 mi ESE 11.5 mph 21.9 mph N/A   Muy nublado
5:56 PM 91.0 ° F 94.3 ° F 66.9 ° F 45% 29.85 pul 10.0 mi Este 18.4 mph 25.3 mph N/A   Muy nublado
6:56 PM 91.0 ° F 95.2 ° F 68.0 ° F 47% 29.85 pul 10.0 mi SE 23.0 mph - N/A   Parcialmente nublado
7:56 PM 90.0 ° F 93.6 ° F 68.0 ° F 48% 29.86 pul 10.0 mi SE 24.2 mph - N/A   Despejado
8:56 PM 88.0 ° F 92.9 ° F 70.0 ° F 55% 29.87 pul 10.0 mi ESE 17.3 mph 28.8 mph N/A   Despejado
9:56 PM 86.0 ° F 90.7 ° F 70.0 ° F 59% 29.89 pul 10.0 mi ESE 18.4 mph - N/A   Despejado
10:56 PM 84.0 ° F 87.8 ° F 69.1 ° F 61% 29.91 pul 10.0 mi ESE 17.3 mph 25.3 mph N/A   Despejado
11:56 PM 82.0 ° F 85.5 ° F 69.1 ° F 65% 29.94 pul 10.0 mi SE 15.0 mph - N/A   Despejado